• en France
  • Liste des pays
  • À 7 jours
  • Température de l'eau
  • Carte satellitaire
  • Carte météo
  • Widgets météo
  • user-avatar
    Se connecter

    Météo par heure à Mozuli

    Ce jour, 22 Septembre, Samedi

    Heure Température Précipitation Vent Pression Humidité
    00:00 +19°C° 0 mm 4 m/s 748 mmHg 71%
    01:00 +19°C° 0 mm 5 m/s 747 mmHg 70%
    02:00 +19°C° 0 mm 5 m/s 746 mmHg 69%
    03:00 +19°C° 0 mm 5 m/s 746 mmHg 69%
    04:00 +17°C° 0 mm 5 m/s 745 mmHg 69%
    05:00 +17°C° 0 mm 5 m/s 745 mmHg 69%
    06:00 +17°C° 0 mm 5 m/s 745 mmHg 70%
    07:00 +17°C° 0 mm 5 m/s 745 mmHg 71%
    08:00 +19°C° 0 mm 5 m/s 745 mmHg 71%
    09:00 +16°C° 0.6 mm 5 m/s 745 mmHg 76%
    10:00 +15°C° 0.6 mm 5 m/s 745 mmHg 81%
    11:00 +14°C° 0.6 mm 5 m/s 746 mmHg 85%
    12:00 +13°C° 0.8 mm 4 m/s 746 mmHg 86%
    13:00 +13°C° 0.8 mm 4 m/s 746 mmHg 88%
    14:00 +12°C° 0.8 mm 3 m/s 747 mmHg 89%
    15:00 +12°C° 0.3 mm 3 m/s 747 mmHg 88%
    16:00 +12°C° 0.3 mm 3 m/s 747 mmHg 88%
    17:00 +12°C° 0.3 mm 3 m/s 747 mmHg 87%
    18:00 +12°C° 0.1 mm 3 m/s 747 mmHg 87%
    19:00 +11°C° 0.1 mm 4 m/s 747 mmHg 87%
    20:00 +11°C° 0.1 mm 4 m/s 747 mmHg 87%
    21:00 +10°C° 0 mm 4 m/s 747 mmHg 88%
    22:00 +10°C° 0 mm 3 m/s 747 mmHg 89%
    23:00 +9°C° 0 mm 3 m/s 747 mmHg 90%

    Demain, 23 Septembre, Dimanche

    Heure Température Précipitation Vent Pression Humidité
    00:00 +9°C° 0 mm 3 m/s 747 mmHg 91%
    01:00 +9°C° 0 mm 3 m/s 747 mmHg 92%
    02:00 +8°C° 0 mm 3 m/s 747 mmHg 93%
    03:00 +8°C° 0 mm 3 m/s 747 mmHg 93%
    04:00 +8°C° 0 mm 3 m/s 746 mmHg 93%
    05:00 +7°C° 0 mm 4 m/s 746 mmHg 93%
    06:00 +8°C° 0 mm 4 m/s 746 mmHg 90%
    07:00 +8°C° 0 mm 4 m/s 746 mmHg 87%
    08:00 +9°C° 0 mm 5 m/s 746 mmHg 84%
    09:00 +10°C° 0 mm 5 m/s 746 mmHg 80%
    10:00 +10°C° 0 mm 5 m/s 746 mmHg 76%
    11:00 +12°C° 0 mm 5 m/s 746 mmHg 72%
    12:00 +11°C° 0.2 mm 6 m/s 745 mmHg 71%
    13:00 +13°C° 0.2 mm 6 m/s 745 mmHg 70%
    14:00 +13°C° 0.2 mm 6 m/s 745 mmHg 68%
    15:00 +13°C° 0.2 mm 5 m/s 745 mmHg 71%
    16:00 +12°C° 0.2 mm 5 m/s 745 mmHg 73%
    17:00 +12°C° 0.2 mm 4 m/s 745 mmHg 75%
    18:00 +11°C° 0.2 mm 4 m/s 745 mmHg 79%
    19:00 +10°C° 0.2 mm 4 m/s 745 mmHg 83%
    20:00 +9°C° 0.2 mm 3 m/s 745 mmHg 88%
    21:00 +9°C° 0 mm 3 m/s 745 mmHg 89%
    22:00 +8°C° 0 mm 3 m/s 745 mmHg 91%
    23:00 +8°C° 0 mm 3 m/s 745 mmHg 92%

    Après-demain, 24 Septembre, Lundi

    Heure Température Précipitation Vent Pression Humidité
    00:00 +8°C° 0 mm 3 m/s 745 mmHg 93%
    01:00 +7°C° 0 mm 3 m/s 744 mmHg 95%
    02:00 +7°C° 0 mm 3 m/s 744 mmHg 96%
    03:00 +7°C° 0 mm 2 m/s 744 mmHg 96%
    04:00 +7°C° 0 mm 2 m/s 744 mmHg 96%
    05:00 +7°C° 0 mm 1 m/s 743 mmHg 96%
    06:00 +8°C° 0 mm 1 m/s 743 mmHg 95%
    07:00 +9°C° 0 mm 1 m/s 743 mmHg 93%
    08:00 +9°C° 0 mm 1 m/s 743 mmHg 91%
    09:00 +10°C° 0.2 mm 1 m/s 743 mmHg 88%
    10:00 +11°C° 0.2 mm 1 m/s 742 mmHg 86%
    11:00 +12°C° 0.2 mm 2 m/s 742 mmHg 84%
    12:00 +10°C° 0.5 mm 2 m/s 742 mmHg 84%
    13:00 +10°C° 0.5 mm 3 m/s 742 mmHg 84%
    14:00 +10°C° 0.5 mm 4 m/s 742 mmHg 84%
    15:00 +10°C° 0.1 mm 4 m/s 742 mmHg 84%
    16:00 +10°C° 0.1 mm 4 m/s 742 mmHg 85%
    17:00 +8°C° 0.1 mm 4 m/s 743 mmHg 85%
    18:00 +8°C° 0 mm 4 m/s 743 mmHg 84%
    19:00 +7°C° 0 mm 4 m/s 744 mmHg 82%
    20:00 +7°C° 0 mm 5 m/s 744 mmHg 81%
    21:00 +6°C° 0 mm 5 m/s 745 mmHg 81%
    22:00 +6°C° 0 mm 5 m/s 745 mmHg 81%
    23:00 +5°C° 0 mm 5 m/s 745 mmHg 81%

    25 Septembre, Mardi

    Heure Température Précipitation Vent Pression Humidité
    00:00 +5°C° 0 mm 5 m/s 746 mmHg 81%
    01:00 +3°C° 0 mm 5 m/s 746 mmHg 82%
    02:00 +3°C° 0 mm 5 m/s 747 mmHg 82%
    03:00 +3°C° 0 mm 5 m/s 747 mmHg 82%
    04:00 +3°C° 0 mm 5 m/s 748 mmHg 82%
    05:00 +2°C° 0 mm 5 m/s 748 mmHg 82%
    06:00 +3°C° 0 mm 5 m/s 749 mmHg 78%
    07:00 +4°C° 0 mm 6 m/s 750 mmHg 75%
    08:00 +4°C° 0 mm 6 m/s 750 mmHg 72%
    09:00 +5°C° 0.1 mm 6 m/s 751 mmHg 68%
    10:00 +7°C° 0.1 mm 6 m/s 751 mmHg 64%
    11:00 +6°C° 0.1 mm 7 m/s 752 mmHg 60%
    12:00 +8°C° 0.1 mm 7 m/s 752 mmHg 56%
    13:00 +8°C° 0.1 mm 7 m/s 753 mmHg 52%
    14:00 +9°C° 0.1 mm 7 m/s 753 mmHg 48%
    15:00 +8°C° 0 mm 6 m/s 754 mmHg 50%
    16:00 +8°C° 0 mm 5 m/s 754 mmHg 51%
    17:00 +7°C° 0 mm 4 m/s 755 mmHg 52%
    18:00 +7°C° 0 mm 3 m/s 755 mmHg 57%
    19:00 +5°C° 0 mm 3 m/s 756 mmHg 62%
    20:00 +5°C° 0 mm 3 m/s 756 mmHg 66%
    21:00 +5°C° 0 mm 4 m/s 756 mmHg 68%
    22:00 +5°C° 0 mm 4 m/s 756 mmHg 70%
    23:00 +5°C° 0 mm 4 m/s 756 mmHg 72%

    26 Septembre, Mercredi

    Heure Température Précipitation Vent Pression Humidité
    00:00 +5°C° 0 mm 4 m/s 756 mmHg 72%
    01:00 +5°C° 0 mm 4 m/s 755 mmHg 72%
    02:00 +5°C° 0 mm 5 m/s 755 mmHg 71%
    03:00 +6°C° 0.1 mm 5 m/s 754 mmHg 76%
    04:00 +6°C° 0.1 mm 5 m/s 754 mmHg 80%
    05:00 +6°C° 0.1 mm 5 m/s 754 mmHg 84%
    06:00 +7°C° 0.2 mm 5 m/s 753 mmHg 85%
    07:00 +8°C° 0.2 mm 6 m/s 753 mmHg 86%
    08:00 +9°C° 0.2 mm 6 m/s 752 mmHg 87%
    09:00 +9°C° 0.1 mm 6 m/s 752 mmHg 84%
    10:00 +10°C° 0.1 mm 6 m/s 752 mmHg 80%
    11:00 +10°C° 0.1 mm 7 m/s 751 mmHg 77%
    12:00 +10°C° 0.3 mm 6 m/s 751 mmHg 80%
    13:00 +10°C° 0.3 mm 6 m/s 750 mmHg 82%
    14:00 +9°C° 0.3 mm 6 m/s 750 mmHg 84%
    15:00 +9°C° 0.5 mm 6 m/s 749 mmHg 86%
    16:00 +9°C° 0.5 mm 6 m/s 749 mmHg 88%
    17:00 +9°C° 0.5 mm 5 m/s 748 mmHg 90%
    18:00 +9°C° 0.5 mm 6 m/s 747 mmHg 90%
    19:00 +9°C° 0.5 mm 6 m/s 746 mmHg 90%
    20:00 +9°C° 0.5 mm 7 m/s 746 mmHg 90%
    21:00 +9°C° 0.7 mm 7 m/s 745 mmHg 90%
    22:00 +10°C° 0.7 mm 7 m/s 744 mmHg 91%
    23:00 +10°C° 0.7 mm 7 m/s 743 mmHg 91%

    27 Septembre, Jeudi

    Heure Température Précipitation Vent Pression Humidité
    00:00 +11°C° 0.5 mm 7 m/s 743 mmHg 91%
    01:00 +11°C° 0.5 mm 6 m/s 743 mmHg 91%
    02:00 +11°C° 0.5 mm 6 m/s 743 mmHg 91%
    03:00 +11°C° 0.2 mm 6 m/s 743 mmHg 91%
    04:00 +12°C° 0.2 mm 5 m/s 743 mmHg 91%
    05:00 +12°C° 0.2 mm 5 m/s 743 mmHg 90%
    06:00 +12°C° 0.2 mm 5 m/s 742 mmHg 90%
    07:00 +12°C° 0.2 mm 5 m/s 742 mmHg 90%
    08:00 +12°C° 0.2 mm 4 m/s 742 mmHg 89%
    09:00 +12°C° 0.7 mm 4 m/s 742 mmHg 89%
    10:00 +12°C° 0.7 mm 4 m/s 742 mmHg 90%
    11:00 +12°C° 0.7 mm 4 m/s 741 mmHg 90%
    12:00 +12°C° 0.8 mm 5 m/s 741 mmHg 88%
    13:00 +12°C° 0.8 mm 5 m/s 741 mmHg 87%
    14:00 +12°C° 0.8 mm 5 m/s 740 mmHg 86%
    15:00 +12°C° 0.3 mm 4 m/s 740 mmHg 86%
    16:00 +12°C° 0.3 mm 4 m/s 740 mmHg 87%
    17:00 +11°C° 0.3 mm 4 m/s 739 mmHg 88%
    18:00 +11°C° 1 mm 4 m/s 739 mmHg 90%
    19:00 +10°C° 1 mm 4 m/s 739 mmHg 92%
    20:00 +10°C° 1 mm 4 m/s 739 mmHg 94%
    21:00 +10°C° 1.1 mm 4 m/s 739 mmHg 93%
    22:00 +8°C° 1.1 mm 4 m/s 739 mmHg 93%
    23:00 +8°C° 1.1 mm 4 m/s 739 mmHg 92%
    Voir plus